This demonstration page uses our WeatherBlox Daily Observations layout. Learn more.

Left ArrowRight Arrow

Hourly Observations for May 9, 2018

Temp ( °F °C ) Dew Point ( °F °C ) Humidity (%) Winds ( mph kmh ) Pressure ( in mb ) Visibility ( mi km ) Precip ( " mm )
2:53 am 02:53 Clear 60 15.6 50 10 70 70 NW 13 20 29.84 1011 10 16 0.00 0.00
3:53 am 03:53 Clear 58 14.4 50 10 75 75 NW 9 15 29.85 1011 10 16 0.00 0.00
4:53 am 04:53 Clear 56 13.3 50 10 81 81 NW 10 17 29.86 1011 10 16 0.00 0.00
5:53 am 05:53 Clear 55 12.8 51 10.6 87 87 NW 12 19 29.87 1012 10 16 0.00 0.00
6:53 am 06:53 Sunny 54 12.2 51 10.6 90 90 WNW 6 9 29.89 1012 10 16 0.00 0.00
7:53 am 07:53 Sunny 57 13.9 52 11.1 83 83 WNW 10 17 29.91 1013 10 16 0.00 0.00
8:53 am 08:53 Sunny 62 16.7 53 11.7 73 73 NNW 15 24 29.91 1013 10 16 0.00 0.00
9:53 am 09:53 Sunny 66 18.9 53 11.7 63 63 NW 16 26 29.91 1013 10 16 0.00 0.00
10:53 am 10:53 Sunny 71 21.7 50 10 47 47 NNW 18 30 29.91 1013 10 16 0.00 0.00
11:53 am 11:53 Sunny 75 23.9 50 10 41 41 NNW 17 28 29.91 1013 10 16 0.00 0.00
12:53 pm 12:53 Sunny 77 25 50 10 39 39 NNW 12 19 29.88 1012 10 16 0.00 0.00
1:53 pm 13:53 Sunny 80 26.7 49 9.4 34 34 WNW 13 20 29.85 1011 10 16 0.00 0.00
2:53 pm 14:53 Sunny 84 28.9 48 8.9 29 29 WNW 18 30 29.84 1010 10 16 0.00 0.00
3:53 pm 15:53 Sunny 83 28.3 48 8.9 30 30 NW 18 30 29.83 1010 10 16 0.00 0.00
4:53 pm 16:53 Sunny 83 28.3 49 9.4 31 31 NW 9 15 29.83 1010 10 16 0.00 0.00
5:53 pm 17:53 Mostly Sunny 81 27.2 45 7.2 28 28 N 18 30 29.84 1011 10 16 0.00 0.00
6:53 pm 18:53 Sunny 81 27.2 45 7.2 28 28 N 12 19 29.84 1011 10 16 0.00 0.00
7:53 pm 19:53 Sunny 77 25 46 7.8 33 33 NNE 9 15 29.84 1011 10 16 0.00 0.00
8:53 pm 20:53 Clear 69 20.6 47 8.3 45 45 NE 6 9 29.86 1011 10 16 0.00 0.00
9:53 pm 21:53 Clear 68 20 46 7.8 45 45 E 5 7 29.88 1012 10 16 0.00 0.00
10:53 pm 22:53 Clear 65 18.3 47 8.3 52 52 Calm 29.90 1012 10 16 0.00 0.00

Powered by AerisWeather